NIMBUS 2 DEB, 40646

Orbit data source: Space-Track

NIMBUS 2 DEB, 40646 is space debris in SSO originally from a launch on Sun, 15 May 1966 UTC launched from the Air Force Western Test Range (AFWTR). Debris objects in space refer to the collection of defunct objects orbiting the Earth. Examples of debris include non-operational satellites, rocket bodies, and fragments generated from explosions, collisions, or faulty payload assembly.

Loading next visibility...
Identifier
40646, 1966-040BK
Orbit
SSO
Country
Flag of USUS
Related business
Manufacturer
Unknown
Mission
Spacecraft
Bus & Motor
Unknown
Mass
Unknown
Launch date (UTC)
1966-05-15 (59 years ago)
Launch vehicle
Unknown
Launch site
Air Force Western Test Range (AFWTR)
Object type
Payload
Rocket body
Debris
Shape & HBR
Unknown shape, 0.1 m
Radar Cross Section
Small (<0.1 m²)

Expand to show TLE details & history
Last TLE update: 14 hours ago

TLE from 14 hours ago
0 NIMBUS 2 DEB
1 40646U 66040BK  25306.20332634  .00002198  00000-0  35932-2 0  9999
2 40646 100.3657 186.2669 0055209 317.3691  42.3162 13.48296398513373
Epoch: 2025-11-02T04:52Z
TLE epoch observation values (Epoch: 2025-11-02T04:52:47.395Z)
Latitude
-0.00003°
Longitude
71.347°
Altitude
1,050.95 km
Speed
7.341 km/s
True Right ascension
12h 25m 04s
True Declination
0° 00' 00"
Sunlit
Object was in daylight at epoch
Visualization orbit readout
Latitude
Unknown
Longitude
Unknown
Altitude
Unknown
Speed
Unknown
Apparent Right ascension
Unknown
Apparent Declination
Unknown
Sunlit
N/A
Visualization observer readout
Local Sidereal Time
14:30:32
Azimuth
Unknown
Elevation
Unknown
Doppler factor
Unknown
Orbital elements
Apogee altitude
1,117.025 km
Perigee altitude
1,034.719 km
Semi-major axis
7,454.009 km
Eccentricity
0.00552
Inclination
100.3657°
RAAN
186.2669°
Arg. of periapsis
317.3691°
True anomaly
42.74429°
Mean anomaly
42.3162°
Eccentric anomaly
42.53003°
Mean motion
3.37255 °/min
Orbital period
106.74 mins
BSTAR
0.0035932
Loading maneuver chart data...
Computing Atmospheric mass density...
Loading historical data...
Loading historical data...
Loading historical data...
Loading historical data...
Loading historical data...
Loading historical data...
Loading historical data...

Documentation

Showing up to 5 results
|